FW5910 Weather Reports


time (UTC)temp
F
wind
direction
speed
knots
gust
knots
rain 1hr
in
rain 24hr
in
rain mn
in
humidity
%
barometer
mb
20260905163139 53 0 0.9 3.5 0.00 0.00 0.00 70 1018.7
20260905162640 52 0 0.9 2.6 0.00 0.00 0.00 70 1018.7
20260905162138 52 340 0.0 1.7 0.00 0.00 0.00 70 1018.6
20260905161636 52 339 0.0 2.6 0.00 0.00 0.00 70 1018.7
20260905161133 52 339 0.9 4.3 0.00 0.00 0.00 71 1018.8
20260905160131 52 343 0.9 2.6 0.00 0.00 0.00 73 1018.8
20260905155630 52 348 0.0 2.6 0.00 0.00 0.00 74 1018.7
20260905155130 51 325 0.0 0.0 0.00 0.00 0.00 74 1018.6
20260905154630 51 318 0.0 0.0 0.00 0.00 0.00 74 1018.6
20260905154129 51 259 0.0 0.0 0.00 0.00 0.00 74 1018.5
20260905153130 51 247 0.0 0.0 0.00 0.00 0.00 74 1018.6
20260905152626 51 246 0.0 0.0 0.00 0.00 0.00 74 1018.5
20260905152127 51 246 0.0 0.0 0.00 0.00 0.00 73 1018.6
20260905151627 51 246 0.0 0.0 0.00 0.00 0.00 73 1018.6
20260905151128 51 246 0.0 0.0 0.00 0.00 0.00 73 1018.6
20260905150625 51 246 0.0 0.0 0.00 0.01 0.00 73 1018.7
20260905150123 51 246 0.0 0.9 0.00 0.01 0.00 73 1018.6
20260905145622 51 246 0.0 1.7 0.00 0.01 0.00 73 1018.5
20260905144116 51 246 0.0 1.7 0.00 0.03 0.00 73 1018.3
20260905143612 51 246 0.9 2.6 0.00 0.05 0.00 72 1018.3
20260905143112 51 246 0.0 2.6 0.00 0.05 0.00 72 1018.4
20260905142609 51 246 0.0 0.0 0.00 0.05 0.00 72 1018.4
20260905142108 51 246 0.0 0.0 0.00 0.06 0.00 72 1018.3
20260905141605 51 246 0.0 0.0 0.00 0.07 0.00 72 1018.1
20260905141105 51 246 0.0 0.0 0.00 0.07 0.00 72 1018.1
20260905140603 51 246 0.0 0.0 0.00 0.08 0.00 72 1017.9
20260905140104 51 246 0.0 0.0 0.00 0.08 0.00 72 1017.8
20260905135103 51 246 0.9 3.5 0.00 0.09 0.00 72 1017.6
20260905134603 51 246 1.7 4.3 0.00 0.09 0.00 72 1017.6
20260905134106 51 246 1.7 4.3 0.00 0.09 0.00 72 1017.6
20260905133603 51 226 0.9 3.5 0.00 0.09 0.00 72 1017.6
20260905132601 51 312 0.9 2.6 0.00 0.09 0.00 72 1017.7
20260905132101 51 312 0.9 2.6 0.00 0.10 0.00 71 1017.6
20260905131603 51 313 0.9 1.7 0.00 0.10 0.00 72 1017.5
20260905130559 51 313 0.9 2.6 0.00 0.10 0.00 71 1017.1
20260905130100 51 285 1.7 4.3 0.00 0.10 0.00 72 1017.1
20260905125559 51 288 1.7 4.3 0.00 0.10 0.00 72 1016.6
20260905125058 51 67 1.7 3.5 0.00 0.10 0.00 72 1016.5
20260905124559 51 344 2.6 5.2 0.00 0.10 0.00 71 1016.5
20260905124100 51 337 2.6 5.2 0.00 0.10 0.00 71 1016.5
20260905123600 51 333 0.9 3.5 0.00 0.10 0.00 72 1016.4
20260905122559 51 90 0.9 3.5 0.00 0.11 0.00 71 1016.6
20260905122052 51 69 0.0 2.6 0.00 0.11 0.00 72 1016.8
20260905121551 51 61 0.0 2.6 0.00 0.11 0.00 73 1016.8
20260905120549 51 275 0.0 0.9 0.00 0.11 0.00 73 1016.8
20260905120050 51 275 0.9 2.6 0.00 0.11 0.00 73 1016.9
20260905115548 51 275 0.9 2.6 0.00 0.11 0.00 73 1016.5
20260905115049 51 263 0.0 2.6 0.00 0.11 0.00 73 1016.7
20260905114550 51 234 0.0 0.0 0.00 0.11 0.00 73 1016.9
20260905114047 51 234 0.0 0.9 0.00 0.11 0.00 73 1016.9
20260905113547 51 233 0.0 0.9 0.00 0.11 0.00 73 1016.8
20260905112547 51 233 0.9 3.5 0.00 0.11 0.00 73 1016.8
20260905112046 51 234 0.9 4.3 0.00 0.11 0.00 72 1016.7
20260905111545 51 229 1.7 4.3 0.00 0.11 0.00 72 1016.6
20260905111044 51 215 0.9 4.3 0.00 0.11 0.00 73 1016.7
20260905110544 51 154 0.0 2.6 0.00 0.11 0.00 73 1016.7
20260905110046 51 205 0.0 0.0 0.00 0.11 0.00 73 1016.9
20260905105546 51 219 0.0 0.0 0.00 0.11 0.00 73 1016.8
20260905105043 51 212 0.0 0.0 0.00 0.11 0.00 72 1016.6
20260905104544 51 202 0.0 0.0 0.00 0.11 0.00 73 1016.6
20260905104043 51 194 0.0 0.0 0.00 0.11 0.00 73 1016.6
20260905103541 51 336 0.0 0.0 0.00 0.11 0.00 72 1016.5
20260905103039 51 339 0.0 0.0 0.00 0.11 0.00 72 1016.0
20260905102539 51 339 0.0 0.0 0.00 0.11 0.00 72 1016.1
20260905101539 51 339 0.0 0.0 0.00 0.11 0.00 72 1016.1
20260905101040 51 339 0.0 0.0 0.00 0.11 0.00 72 1016.1
20260905100539 51 339 0.0 0.0 0.00 0.11 0.00 72 1015.9
20260905100039 51 342 0.0 0.0 0.00 0.11 0.00 72 1015.9
20260905095540 51 343 0.0 0.0 0.00 0.11 0.00 72 1016.0
20260905095036 51 342 0.0 0.0 0.00 0.11 0.00 72 1016.0
20260905094534 51 342 0.0 0.0 0.00 0.11 0.00 71 1016.1
20260905094035 51 343 0.0 0.0 0.00 0.11 0.00 71 1016.2
20260905093535 51 342 0.0 0.0 0.00 0.11 0.00 71 1016.1
20260905092535 51 342 0.0 0.0 0.00 0.11 0.00 71 1016.2
20260905092034 51 343 0.0 0.0 0.00 0.11 0.00 71 1016.4
20260905091534 51 344 0.0 0.0 0.00 0.11 0.00 72 1016.4
20260905091035 51 344 0.0 0.0 0.00 0.11 0.00 72 1016.3
20260905090534 51 344 0.0 0.0 0.00 0.11 0.00 72 1015.9
20260905090034 51 344 0.0 0.0 0.00 0.11 0.00 72 1015.7
20260905085534 51 344 0.0 0.0 0.00 0.11 0.00 71 1016.0
20260905085035 51 343 0.0 0.0 0.00 0.11 0.00 72 1016.0
20260905084535 51 343 0.0 0.0 0.00 0.11 0.00 72 1016.2
20260905084036 51 343 0.0 0.0 0.00 0.11 0.00 72 1016.3
20260905083035 51 342 0.0 0.0 0.00 0.11 0.00 72 1016.3
20260905082535 51 344 0.0 0.0 0.00 0.11 0.00 72 1016.3
20260905082035 51 344 0.0 0.0 0.00 0.11 0.00 72 1016.2
20260905081537 51 344 0.0 0.0 0.00 0.11 0.00 72 1016.2
20260905081036 51 344 0.0 0.0 0.00 0.11 0.00 71 1016.3
20260905080536 51 344 0.0 0.0 0.00 0.11 0.00 72 1016.3
20260905075534 51 10 0.0 0.0 0.00 0.11 0.00 72 1016.4
20260905075037 52 11 0.0 0.0 0.00 0.11 0.00 71 1016.3
20260905073531 52 11 0.0 0.0 0.00 0.11 0.00 71 1016.4
20260905072529 52 11 0.0 0.0 0.00 0.11 0.00 69 1016.8
20260905071529 52 11 0.0 0.0 0.00 0.11 0.00 71 1016.8
20260905071031 52 12 0.0 0.0 0.00 0.11 0.00 71 1016.7
20260905070529 52 12 0.0 0.0 0.00 0.11 0.00 71 1016.6
20260905065531 51 12 0.0 0.0 0.00 0.11 0.00 70 1016.4
20260905065033 52 9 0.0 0.0 0.00 0.11 0.00 71 1016.2
20260905064531 52 9 0.0 0.0 0.00 0.11 0.00 70 1016.1
20260905064029 53 9 0.0 0.0 0.00 0.11 0.00 70 1015.9
20260905063532 53 9 0.0 0.0 0.00 0.11 0.00 70 1015.7
20260905062029 53 90 0.0 0.0 0.00 0.11 0.00 70 1016.2
20260905061530 53 90 0.0 0.0 0.00 0.11 0.00 69 1016.1
20260905061029 54 90 0.0 0.0 0.00 0.11 0.00 69 1016.0
20260905060529 54 90 0.0 0.0 0.00 0.11 0.00 69 1016.1
20260905060029 54 46 0.0 0.0 0.00 0.11 0.00 67 1016.2
20260905055529 54 46 0.0 0.0 0.00 0.11 0.11 67 1016.2
20260905055030 54 46 0.0 0.0 0.00 0.11 0.11 66 1016.2
20260905054529 54 46 0.0 0.0 0.00 0.11 0.11 66 1016.3
20260905053530 55 46 0.0 0.0 0.00 0.11 0.11 66 1016.5
20260905053029 55 46 0.0 3.5 0.00 0.11 0.11 66 1016.5
20260905052530 54 47 0.9 3.5 0.00 0.11 0.11 66 1016.6
20260905052029 54 78 0.0 2.6 0.00 0.11 0.11 66 1016.5
20260905051529 54 126 0.0 0.0 0.00 0.11 0.11 67 1016.6
20260905050531 54 329 0.0 0.0 0.00 0.11 0.11 67 1016.2
20260905050031 54 217 0.0 0.0 0.00 0.11 0.11 67 1016.0
20260905045530 54 217 0.0 0.0 0.00 0.11 0.11 66 1016.1
20260905045029 55 217 0.0 0.0 0.00 0.11 0.11 64 1016.2
20260905044530 55 217 0.0 0.0 0.00 0.11 0.11 64 1016.2
20260905044029 55 217 0.0 0.0 0.00 0.11 0.11 63 1016.3
20260905043531 55 217 0.0 0.0 0.00 0.11 0.11 62 1016.3
20260905043029 55 217 0.0 0.0 0.00 0.11 0.11 61 1016.3
20260905042530 55 217 0.0 0.0 0.00 0.11 0.11 62 1016.3
20260905042029 55 217 0.0 0.0 0.00 0.11 0.11 65 1016.3
20260905041530 55 217 0.0 0.0 0.00 0.11 0.11 64 1016.5
20260905040531 55 217 0.0 0.0 0.00 0.11 0.11 60 1016.2
20260905040029 55 217 0.0 0.0 0.00 0.11 0.11 61 1016.2
20260905035530 55 217 0.0 0.0 0.00 0.11 0.11 61 1016.2
20260905034529 55 218 0.0 0.0 0.00 0.11 0.11 69 1016.0
20260905033531 56 218 0.0 0.0 0.00 0.11 0.11 67 1016.0
20260905033030 56 217 0.0 0.0 0.00 0.11 0.11 66 1016.0
20260905032532 56 224 0.0 0.0 0.00 0.11 0.11 67 1015.9
20260905032031 56 225 0.0 0.0 0.00 0.11 0.11 67 1016.0
20260905031032 56 225 0.0 0.0 0.00 0.11 0.11 66 1016.0
20260905030529 56 225 0.0 0.0 0.00 0.11 0.11 65 1016.1
20260905030030 56 225 0.0 0.0 0.00 0.11 0.11 64 1016.2
20260905025530 56 225 0.0 0.0 0.00 0.11 0.11 64 1016.2
20260905025029 56 224 0.0 0.0 0.00 0.11 0.11 62 1016.3
20260905024529 56 0 0.0 0.0 0.00 0.11 0.11 62 1016.3
20260905024029 57 0 0.0 0.0 0.00 0.11 0.11 60 1016.2
20260905023529 57 0 0.0 0.0 0.00 0.11 0.11 60 1016.1
20260905022528 57 0 0.0 0.0 0.00 0.11 0.11 57 1016.0
20260905022029 57 0 0.0 0.0 0.00 0.11 0.11 56 1015.7
20260905021529 58 0 0.0 0.0 0.00 0.11 0.11 57 1015.7
20260905020529 58 0 0.0 0.0 0.00 0.11 0.11 59 1015.5
20260905020027 58 0 0.0 0.0 0.00 0.11 0.11 60 1015.4
20260905015521 58 0 0.0 0.0 0.00 0.11 0.11 61 1015.5
20260905015015 58 0 0.0 0.0 0.00 0.11 0.11 59 1015.4
20260905014516 59 0 0.0 0.0 0.00 0.11 0.11 59 1015.3
20260905013010 60 0 0.0 0.0 0.00 0.11 0.11 57 1015.1
20260905012508 60 0 0.0 0.0 0.00 0.11 0.11 56 1015.1
20260905012008 61 0 0.0 0.0 0.00 0.11 0.11 56 1015.0
20260905011507 61 0 0.0 0.0 0.00 0.11 0.11 56 1015.0
20260905011007 61 0 0.0 0.0 0.00 0.11 0.11 55 1015.2
20260905010004 62 0 0.0 0.0 0.00 0.11 0.11 55 1015.1
20260905005504 62 0 0.0 0.0 0.00 0.11 0.11 54 1015.2
20260905005005 62 0 0.0 0.0 0.00 0.11 0.11 52 1015.3
20260905004005 62 0 0.0 0.0 0.00 0.11 0.11 51 1015.4
20260905003502 62 0 0.0 0.0 0.00 0.11 0.11 50 1015.3
20260905003001 62 0 0.0 0.0 0.00 0.11 0.11 50 1015.2
20260905002504 62 0 0.0 0.0 0.00 0.11 0.11 50 1015.3
20260905002001 63 0 0.0 0.0 0.00 0.11 0.11 49 1015.2
20260905001458 63 0 0.0 0.0 0.00 0.11 0.11 48 1015.1
20260905000952 63 0 0.0 0.0 0.00 0.11 0.11 48 1014.8
20260905000449 63 0 0.0 0.0 0.00 0.11 0.11 47 1014.8
20260904235950 64 221 0.0 0.0 0.00 0.11 0.11 46 1014.9
20260904235448 64 221 0.0 0.0 0.00 0.11 0.11 44 1014.9
20260904234947 64 221 0.0 0.0 0.00 0.11 0.11 43 1014.9
20260904234447 64 220 0.0 0.0 0.00 0.11 0.11 45 1015.0
20260904233444 63 220 0.0 0.0 0.00 0.11 0.11 44 1014.9
20260904232942 63 220 0.0 0.0 0.00 0.11 0.11 45 1014.8
20260904232440 63 220 0.0 0.0 0.00 0.11 0.11 43 1014.9
20260904231937 64 220 0.0 0.0 0.00 0.11 0.11 43 1014.9
20260904230935 64 220 0.0 0.0 0.00 0.11 0.11 45 1015.0
20260904230432 64 0 0.0 0.0 0.00 0.11 0.11 45 1015.0
20260904225929 64 0 0.0 0.0 0.00 0.11 0.11 45 1015.2
20260904225429 63 0 0.0 0.9 0.00 0.11 0.11 46 1015.1
20260904224929 63 0 0.0 0.9 0.00 0.11 0.11 44 1015.1
20260904224429 63 0 0.0 0.0 0.00 0.11 0.11 45 1015.1
20260904223930 63 117 0.0 0.0 0.00 0.11 0.11 44 1015.0
20260904222929 63 142 0.9 3.5 0.00 0.11 0.11 47 1015.1
20260904221921 62 160 0.9 3.5 0.00 0.11 0.11 46 1015.1
20260904221416 62 168 0.9 3.5 0.00 0.11 0.11 46 1015.0
20260904220910 62 173 0.9 1.7 0.00 0.11 0.11 47 1014.9
20260904220403 62 171 0.9 2.6 0.00 0.11 0.11 46 1014.9
20260904215903 62 0 0.9 3.5 0.00 0.11 0.11 48 1015.0
20260904215404 62 161 0.9 3.5 0.00 0.11 0.11 49 1015.0
20260904214905 62 148 0.9 3.5 0.00 0.11 0.11 48 1015.1
20260904214404 62 219 0.9 4.3 0.00 0.11 0.11 49 1015.2
20260904213402 63 209 0.9 3.5 0.00 0.11 0.11 53 1015.3
20260904212903 63 199 0.9 5.2 0.00 0.11 0.11 57 1015.3
20260904212404 63 200 1.7 5.2 0.00 0.11 0.11 57 1015.1
20260904211903 62 263 1.7 6.1 0.00 0.11 0.11 57 1015.2
20260904211406 62 278 1.7 6.1 0.00 0.11 0.11 59 1015.2
20260904210903 61 135 2.6 6.1 0.00 0.11 0.11 61 1015.2
20260904210403 61 173 1.7 5.2 0.00 0.11 0.11 63 1015.1
20260904204402 61 0 0.0 2.6 0.00 0.11 0.11 67 1014.8
20260904203903 59 126 0.0 0.9 0.00 0.11 0.11 70 1014.8
20260904203400 59 128 0.9 2.6 0.00 0.11 0.11 71 1014.8
20260904202852 58 126 1.7 3.5 0.00 0.11 0.11 73 1014.9
20260904202346 58 0 0.9 3.5 0.00 0.11 0.11 74 1014.9
20260904201841 58 0 0.0 3.5 0.00 0.11 0.11 71 1014.9
20260904201334 58 174 0.0 0.0 0.00 0.11 0.11 71 1015.0
20260904200838 58 175 0.0 0.0 0.00 0.11 0.11 73 1015.0
20260904200332 58 0 0.0 0.0 0.00 0.11 0.11 73 1015.1
20260904195831 58 0 0.0 0.0 0.00 0.11 0.11 72 1015.0
20260904195331 58 86 0.0 0.0 0.00 0.11 0.11 72 1014.9
20260904194830 57 98 0.9 3.5 0.00 0.11 0.11 74 1014.9
20260904194332 57 0 0.9 3.5 0.00 0.11 0.11 74 1015.0
20260904193332 57 0 0.0 1.7 0.00 0.11 0.11 76 1015.0
20260904192831 56 0 0.0 1.7 0.00 0.11 0.11 78 1015.0
20260904192333 56 0 0.9 1.7 0.00 0.11 0.11 78 1015.0
20260904191833 55 0 0.9 2.6 0.00 0.11 0.11 78 1015.1
20260904191330 55 0 0.9 2.6 0.00 0.11 0.11 79 1015.1
20260904190830 55 0 0.9 2.6 0.00 0.11 0.11 79 1015.2
20260904190331 55 0 0.0 1.7 0.00 0.11 0.11 80 1015.0
20260904185830 55 0 0.0 0.9 0.00 0.11 0.11 80 1015.0
20260904185331 54 0 0.0 1.7 0.00 0.11 0.11 80 1015.0
20260904184832 54 0 0.0 1.7 0.00 0.11 0.11 80 1015.0
20260904184332 54 0 0.0 1.7 0.00 0.11 0.11 80 1014.9
20260904183319 53 0 0.0 1.7 0.00 0.15 0.11 80 1014.9
20260904182817 53 0 0.0 1.7 0.00 0.21 0.11 81 1014.8
20260904182320 53 0 0.0 1.7 0.00 0.21 0.11 81 1014.8
20260904181817 53 0 0.0 0.0 0.00 0.21 0.11 81 1014.8
20260904181317 53 107 0.0 0.0 0.00 0.21 0.11 81 1014.9
20260904180314 52 107 0.9 2.6 0.00 0.22 0.11 81 1014.9
20260904175312 52 92 1.7 3.5 0.00 0.23 0.11 82 1014.8
20260904174812 52 0 0.9 3.5 0.00 0.23 0.11 82 1014.6
20260904173812 52 29 0.0 0.0 0.00 0.23 0.11 82 1014.5
20260904172809 51 29 0.0 2.6 0.00 0.23 0.11 83 1014.4
20260904172307 51 33 0.0 2.6 0.00 0.23 0.11 82 1014.2
20260904171806 51 44 0.0 1.7 0.00 0.23 0.11 83 1014.2
20260904170808 51 44 0.0 0.0 0.00 0.23 0.11 82 1014.0
20260904170305 51 44 0.0 0.9 0.00 0.23 0.11 83 1013.9
20260904165808 50 44 0.0 1.7 0.00 0.23 0.11 83 1013.9
20260904165305 50 44 0.0 1.7 0.00 0.23 0.11 82 1013.8
20260904164808 50 71 0.0 1.7 0.00 0.23 0.11 83 1013.8
20260904164308 50 349 0.9 2.6 0.00 0.23 0.11 83 1013.7
20260904163805 50 349 0.9 2.6 0.00 0.23 0.11 83 1013.7